Date String (YYYY-MM-DD hh:mm:ss) UTC,Instrument flags,absolute air pressure of the measurement (hPa),sample flow rate (lpm),inlet stack bypass flow (lpm),air temperature of the measurement (°C),ambient temperature measured by the external sensor (°C),aerosol sample conditioner tube jacket temperature (°C),OPC LED temperature (°C),internal box temperature (°C),relative humidity of the measurement (%),span deviation,mass concentration of particles derived from Lorenz-Mie calculation of OPC scattering (μg/m³),mass concentration of particles derived from Lorenz-Mie calculation of OPC scattering (μg/m³),mass concentration of particles derived from Lorenz-Mie calculation of OPC scattering (μg/m³)
DateTimeUTC,F1_M11,P_M11,Q1_M11,Q2_M11,T1_M11,T2_M11,T3_M11,T4_M11,T5_M11,U1_M11,ZSPAN_M11,X0_M11,X2_M11,X1_M11
2024-03-24 06:00:00,SystemResetWarning,0813.5,5.00,000.00,024.3,023.4,000.0,033.0,026.2,14.7,0000.0,0007.58,0003.72,0003.01
2024-03-24 06:01:00,SystemResetWarning,0813.6,5.01,000.00,024.3,023.4,000.0,033.0,026.2,15.4,0000.0,0008.23,0003.74,0003.04
2024-03-24 06:02:00,SystemResetWarning,0813.5,5.00,000.00,024.3,023.4,000.0,033.0,026.2,16.5,0000.0,0008.86,0003.84,0003.16
2024-03-24 06:03:00,SystemResetWarning,0813.5,5.00,000.00,024.3,023.4,000.0,033.0,026.2,15.9,0000.0,0009.16,0003.90,0003.21
2024-03-24 06:04:00,SystemResetWarning,0813.5,5.00,000.00,024.2,023.4,000.0,033.0,026.1,15.4,0000.0,0009.82,0003.88,0003.23
2024-03-24 06:05:00,SystemResetWarning,0813.4,5.00,000.00,024.2,023.4,000.0,032.9,026.1,15.2,0000.0,0010.54,0003.92,0003.25
2024-03-24 06:06:00,SystemResetWarning,0813.4,4.99,000.00,024.2,023.4,000.0,032.9,026.1,15.0,0000.0,0010.75,0003.93,0003.27
2024-03-24 06:07:00,SystemResetWarning,0813.3,4.99,000.00,024.2,023.4,000.0,032.9,026.1,14.8,0000.0,0010.88,0003.95,0003.28
2024-03-24 06:08:00,SystemResetWarning,0813.3,5.01,000.00,024.2,023.4,000.0,032.9,026.1,14.8,0000.0,0010.90,0003.94,0003.29
2024-03-24 06:09:00,SystemResetWarning,0813.3,5.00,000.00,024.2,023.4,000.0,032.9,026.1,14.6,0000.0,0010.88,0003.94,0003.30
2024-03-24 06:10:00,SystemResetWarning,0813.3,5.00,000.00,024.2,023.4,000.0,032.9,026.1,14.7,0000.0,0010.93,0003.96,0003.30
2024-03-24 06:11:00,SystemResetWarning,0813.3,5.00,000.00,024.2,023.4,000.0,032.9,026.1,15.2,0000.0,0010.88,0003.95,0003.30
2024-03-24 06:12:00,SystemResetWarning,0813.3,5.00,000.00,024.2,023.3,000.0,032.9,026.1,15.0,0000.0,0010.23,0003.92,0003.26
2024-03-24 06:13:00,SystemResetWarning,0813.3,5.00,000.00,024.2,023.3,000.0,032.9,026.1,14.8,0000.0,0009.94,0003.85,0003.17
2024-03-24 06:14:00,SystemResetWarning,0813.2,5.00,000.00,024.2,023.4,000.0,032.9,026.1,14.5,0000.0,0009.54,0003.75,0003.08
2024-03-24 06:15:00,SystemResetWarning,0813.2,5.00,000.00,024.2,023.3,000.0,032.9,026.1,14.6,0000.0,0008.35,0003.69,0003.01
2024-03-24 06:16:00,SystemResetWarning,0813.2,4.99,000.00,024.2,023.3,000.0,032.9,026.1,14.6,0000.0,0007.41,0003.64,0002.95
2024-03-24 06:17:00,SystemResetWarning,0813.2,5.00,000.00,024.2,023.3,000.0,032.9,026.1,14.7,0000.0,0007.16,0003.64,0002.93
2024-03-24 06:18:00,SystemResetWarning,0813.1,5.00,000.00,024.2,023.3,000.0,032.8,026.1,14.9,0000.0,0007.42,0003.67,0002.94
2024-03-24 06:19:00,SystemResetWarning,0813.0,5.00,000.00,024.1,023.3,000.0,032.8,026.1,14.6,0000.0,0008.03,0003.73,0002.95
2024-03-24 06:20:00,SystemResetWarning,0813.0,5.00,000.00,024.1,023.3,000.0,032.8,026.1,14.6,0000.0,0008.30,0003.79,0002.97
2024-03-24 06:21:00,SystemResetWarning,0813.0,5.00,000.00,024.1,023.3,000.0,032.8,026.0,14.7,0000.0,0008.69,0003.81,0003.00
2024-03-24 06:22:00,SystemResetWarning,0813.0,5.01,000.00,024.1,023.3,000.0,032.8,026.0,15.0,0000.0,0010.27,0003.87,0003.05
2024-03-24 06:23:00,SystemResetWarning,0813.0,5.00,000.00,024.1,023.3,000.0,032.8,026.0,14.9,0000.0,0010.30,0003.88,0003.09
2024-03-24 06:24:00,SystemResetWarning,0813.0,5.00,000.00,024.1,023.3,000.0,032.8,026.0,14.9,0000.0,0009.99,0003.88,0003.12
2024-03-24 06:25:00,SystemResetWarning,0813.0,4.99,000.00,024.1,023.3,000.0,032.8,026.0,16.1,0000.0,0010.17,0003.97,0003.19
2024-03-24 06:26:00,SystemResetWarning,0813.0,5.00,000.00,024.1,023.3,000.0,032.8,026.0,16.5,0000.0,0010.77,0004.11,0003.30
2024-03-24 06:27:00,SystemResetWarning,0813.0,5.00,000.00,024.1,023.3,000.0,032.8,026.0,16.6,0000.0,0011.95,0004.27,0003.40
2024-03-24 06:28:00,SystemResetWarning,0812.8,5.00,000.00,024.1,023.3,000.0,032.8,026.0,17.2,0000.0,0012.87,0004.44,0003.51
2024-03-24 06:29:00,SystemResetWarning,0812.8,5.00,000.00,024.1,023.3,000.0,032.8,026.0,17.7,0000.0,0014.33,0004.62,0003.64
2024-03-24 06:30:00,SystemResetWarning,0812.8,5.00,000.00,024.1,023.3,000.0,032.8,026.0,17.3,0000.0,0015.25,0004.74,0003.75
2024-03-24 06:31:00,SystemResetWarning,0812.8,5.00,000.00,024.1,023.3,000.0,032.8,026.0,17.3,0000.0,0016.27,0004.87,0003.86
2024-03-24 06:32:00,SystemResetWarning,0812.7,5.00,000.00,024.1,023.2,000.0,032.8,026.0,17.6,0000.0,0016.81,0005.03,0003.96
2024-03-24 06:33:00,SystemResetWarning,0812.7,5.00,000.00,024.1,023.2,000.0,032.8,026.0,18.0,0000.0,0016.15,0005.20,0004.09
2024-03-24 06:34:00,SystemResetWarning,0812.7,5.00,000.00,024.1,023.2,000.0,032.8,026.0,18.1,0000.0,0016.93,0005.37,0004.23
2024-03-24 06:35:00,SystemResetWarning,0812.7,5.00,000.00,024.1,023.2,000.0,032.8,026.0,18.4,0001.2,0017.54,0005.51,0004.37
2024-03-24 06:36:00,SystemResetWarning,0812.6,5.00,000.00,024.1,023.1,000.0,032.7,026.0,18.5,0002.5,0017.75,0005.60,0004.46
2024-03-24 06:37:00,SystemResetWarning,0812.7,5.00,000.00,024.1,023.1,000.0,032.7,025.9,18.2,0003.1,0017.68,0005.66,0004.52
2024-03-24 06:38:00,SystemResetWarning,0812.7,5.00,000.00,024.1,023.1,000.0,032.7,025.9,18.1,0003.0,0017.35,0005.73,0004.58
2024-03-24 06:39:00,SystemResetWarning,0812.7,5.00,000.00,024.0,023.1,000.0,032.7,025.9,17.6,0001.7,0018.12,0005.77,0004.60
2024-03-24 06:40:00,SystemResetWarning,0812.7,5.01,000.00,024.0,023.1,000.0,032.7,025.9,17.3,0000.2,0017.73,0005.76,0004.58
2024-03-24 06:41:00,SystemResetWarning,0812.7,5.01,000.00,024.0,023.1,000.0,032.7,025.9,17.0,0000.0,0017.34,0005.73,0004.56
2024-03-24 06:42:00,SystemResetWarning,0812.6,4.99,000.00,024.0,023.1,000.0,032.7,025.9,16.8,0000.0,0016.67,0005.71,0004.51
2024-03-24 06:43:00,SystemResetWarning,0812.6,5.00,000.00,024.0,023.1,000.0,032.7,025.9,16.6,0000.0,0016.17,0005.62,0004.46
2024-03-24 06:44:00,SystemResetWarning,0812.6,4.99,000.00,024.0,023.1,000.0,032.7,025.9,16.9,0000.0,0015.56,0005.51,0004.40
2024-03-24 06:45:00,SystemResetWarning,0812.6,4.99,000.00,024.0,023.2,000.0,032.7,025.9,17.1,0000.0,0015.41,0005.45,0004.37
2024-03-24 06:46:00,SystemResetWarning,0812.6,5.00,000.00,024.0,023.2,000.0,032.7,025.9,17.2,0000.0,0015.10,0005.44,0004.31
2024-03-24 06:47:00,SystemResetWarning,0812.6,5.00,000.00,024.0,023.2,000.0,032.7,025.9,16.8,0000.0,0015.03,0005.44,0004.24
2024-03-24 06:48:00,SystemResetWarning,0812.5,4.99,000.00,024.0,023.2,000.0,032.7,025.9,17.0,0000.0,0014.92,0005.40,0004.17
2024-03-24 06:49:00,SystemResetWarning,0812.5,5.00,000.00,024.0,023.2,000.0,032.7,025.9,17.5,0000.0,0014.47,0005.33,0004.14
2024-03-24 06:50:00,SystemResetWarning,0812.5,5.00,000.00,024.0,023.2,000.0,032.7,025.9,17.9,0000.0,0013.40,0005.33,0004.15
2024-03-24 06:51:00,SystemResetWarning,0812.5,5.00,000.00,024.0,023.2,000.0,032.6,025.9,18.3,0000.0,0012.99,0005.35,0004.21
2024-03-24 06:52:00,SystemResetWarning,0812.4,5.00,000.00,024.0,023.2,000.0,032.6,025.9,18.3,0000.0,0013.00,0005.43,0004.28
2024-03-24 06:53:00,SystemResetWarning,0812.4,5.01,000.00,024.0,023.2,000.0,032.6,025.9,18.6,0000.0,0014.01,0005.54,0004.39
2024-03-24 06:54:00,SystemResetWarning,0812.4,5.00,000.00,024.0,023.2,000.0,032.6,025.9,18.7,0000.0,0014.67,0005.75,0004.53
2024-03-24 06:55:00,SystemResetWarning,0812.4,5.00,000.00,024.0,023.2,000.0,032.6,025.9,18.8,0000.0,0014.86,0005.90,0004.62
2024-03-24 06:56:00,SystemResetWarning,0812.4,5.00,000.00,024.0,023.1,000.0,032.6,025.9,19.4,0000.0,0015.10,0006.15,0004.75
2024-03-24 06:57:00,SystemResetWarning,0812.4,5.00,000.00,024.0,023.1,000.0,032.6,025.9,19.5,0000.0,0015.80,0006.29,0004.89
2024-03-24 06:58:00,SystemResetWarning,0812.4,5.00,000.00,024.0,023.1,000.0,032.6,025.9,19.4,0000.0,0016.21,0006.41,0005.02
2024-03-24 06:59:00,SystemResetWarning,0812.4,5.00,000.00,024.0,023.1,000.0,032.6,025.9,19.5,0000.0,0016.60,0006.56,0005.16
